SCP
4 4 4 4 3 2 1 2 2 1 1 0 0 0 0 0 0 1 1 1 1 1 1 1 1 1 1 0 0 0 0 1 1 1 1 1 1 1 1 1 1 1 1
5 5 5 4 3 2 2 2 2 1 1 1 0 0 0 0 0 1 1 1 1 1 1 1 1 1 1 1 1 1 1 1 1 1 1 1 1 1 1 1 1 1 1
6 6 5 4 3 3 2 2 2 1 1 1 1 0 0 0 1 1 1 1 1 1 1 1 1 1 1 1 1 1 1 1 1 1 1 1 1 1 1 1 1 1 2
5 4 3 3 3 3 3 3 2 1 1 1 1 1 1 1 1 1 1 1 1 1 1 1 1 1 1 1 1 1 1 1 1 1 1 1 1 1 1 1 2 2 2
3 3 2 2 3 3 4 3 2 1 1 1 1 1 1 1 1 1 1 1 1 1 1 1 1 1 1 1 1 1 1 2 2 2 2 2 2 2 2 2 1 2 2
3 3 2 2 3 4 4 3 1 1 1 1 1 2 2 1 1 1 1 1 1 2 2 2 1 1 1 1 1 1 1 2 2 3 3 3 2 2 1 1 1 1 1
4 3 2 2 3 4 4 2 1 1 1 2 2 2 2 2 1 1 1 1 2 2 2 2 2 2 2 1 1 1 1 1 2 2 3 3 2 2 1 1 1 1 1
4 4 3 3 4 4 3 2 1 1 1 2 2 2 2 2 2 1 1 1 2 2 2 2 2 2 2 2 1 1 1 1 1 1 2 2 2 1 1 0 0 0 0
5 4 4 4 5 4 3 2 1 1 2 2 3 3 3 3 2 1 1 2 2 2 1 1 1 1 1 1 1 1 1 1 1 1 1 1 1 0 0 0 0 0 0
6 6 5 6 6 5 3 2 1 1 2 3 3 3 3 3 3 2 1 2 2 2 1 1 0 1 0 0 1 1 1 1 1 1 1 1 0 0 0 0 0 0 0
8 8 7 7 7 5 3 2 2 1 2 2 3 3 3 3 2 2 1 2 2 2 1 1 0 0 0 0 1 1 1 1 1 1 1 1 1 1 0 0 0 0 0
9 9 8 7 6 5 3 2 2 1 1 2 2 3 2 2 2 1 1 1 1 1 1 1 1 0 0 0 0 1 1 1 1 2 2 2 2 1 1 0 0 0 0
9 9 8 7 6 4 3 3 2 2 1 1 2 2 2 1 1 1 1 1 1 1 1 1 1 0 0 0 0 0 0 1 1 1 2 2 2 2 2 1 0 0 0
8 8 8 6 6 5 4 3 3 2 2 1 1 2 2 1 1 1 1 1 1 1 1 1 1 1 0 0 0 0 0 1 1 1 2 2 2 2 2 1 1 0 0
7 8 7 6 6 5 4 4 3 2 2 1 1 1 1 1 1 1 1 1 1 1 1 1 1 1 1 1 1 1 1 1 1 1 1 2 2 2 2 1 1 0 0
7 8 8 8 7 6 5 4 2 2 1 1 1 1 1 1 1 0 0 1 1 1 1 1 2 1 1 1 1 1 1 1 1 1 1 2 2 2 1 1 0 0 0
7 8 10 10 10 8 6 4 2 1 1 1 0 0 0 0 0 0 0 0 0 0 1 1 2 2 1 1 1 1 1 2 1 1 1 2 2 1 1 0 0 0 0
6 8 11 11 11 9 7 4 3 2 2 1 1 0 0 0 0 0 0 0 0 0 1 1 2 2 2 2 2 2 2 2 2 2 2 2 2 1 1 1 0 0 0
6 8 11 11 9 8 6 4 3 3 2 2 1 1 0 0 0 0 0 0 0 1 1 1 2 2 2 2 2 3 3 3 3 2 2 2 2 1 1 1 0 0 0
7 8 9 9 7 6 5 4 3 3 2 1 1 1 1 0 0 0 0 0 0 0 1 1 2 2 2 3 3 3 4 4 3 3 2 2 2 2 1 1 1 0 0
7 8 8 7 6 5 4 4 3 2 1 1 1 1 1 0 0 0 0 0 0 0 0 1 1 2 2 3 3 4 4 4 4 3 3 2 2 1 1 1 1 1 1
7 7 7 6 5 5 4 3 2 1 1 1 0 0 0 0 0 0 0 0 0 0 0 1 1 2 2 3 4 4 4 4 3 3 2 2 1 1 1 1 1 1 1
7 7 7 6 5 3 2 2 1 1 0 0 0 0 0 0 0 0 0 0 0 0 0 0 1 1 1 2 3 4 4 3 3 2 2 2 1 1 1 1 1 1 1
7 7 6 5 4 2 1 1 1 0 0 0 0 0 0 0 0 0 0 0 0 0 0 0 0 0 1 1 2 3 3 3 2 2 2 2 1 1 1 1 1 1 1
7 7 5 4 3 2 1 1 0 0 0 0 0 0 1 1 1 0 0 0 0 0 0 0 0 0 0 1 2 2 2 2 1 1 2 2 2 2 2 1 1 1 1
6 6 5 3 2 1 1 1 1 1 0 0 0 1 1 1 1 1 0 0 0 0 0 0 0 0 0 1 1 2 2 1 0 1 2 3 3 3 2 1 1 1 1
Wind_Speed
7 6 6 6 6 5 5 5 5 4 4 4 4 4 3 3 3 3 3 3 2 1 1 1 1 1 1 1 1 1 1 2 3 2 2 2 2 3 3 2 3 2 2
7 6 6 5 6 6 6 5 5 5 5 5 4 4 4 3 3 3 3 3 3 3 2 2 2 1 1 1 1 2 2 2 2 3 2 2 2 3 3 3 2 2 2
8 7 6 6 6 7 7 6 5 5 5 5 5 5 4 4 4 4 4 3 3 3 3 3 3 2 2 2 2 2 2 2 2 2 2 1 2 2 2 3 3 2 2
8 8 8 8 7 7 6 6 5 5 6 6 6 5 5 4 4 4 4 4 3 3 3 3 3 4 4 3 3 3 2 2 1 1 2 2 2 2 1 2 2 2 2
8 8 8 7 6 5 6 6 5 6 6 6 5 5 4 4 4 5 5 5 4 4 3 3 4 4 5 4 3 3 3 2 2 2 2 1 2 1 2 2 2 2 2
8 7 7 6 6 6 6 5 5 5 5 5 5 5 4 4 5 6 6 4 4 4 3 3 3 3 3 4 5 5 5 4 4 3 3 3 3 3 2 2 2 2 2
7 6 6 6 6 6 6 6 6 6 5 4 4 4 5 4 5 6 7 4 4 4 4 3 3 2 2 2 3 4 5 6 6 4 5 5 4 4 3 3 3 3 3
5 5 5 6 6 5 5 6 5 5 5 5 5 5 4 4 5 6 6 4 3 4 4 3 3 2 2 2 2 2 3 4 4 4 4 5 5 4 4 3 3 3 3
5 5 6 6 6 6 6 6 4 4 4 4 5 5 5 4 5 6 6 3 3 3 3 3 3 3 3 2 2 2 3 3 3 3 4 4 4 4 3 1 1 1 2
6 6 6 6 6 7 6 5 4 4 4 5 5 5 5 5 6 6 6 3 3 2 2 2 3 3 4 4 3 3 3 3 2 2 2 2 2 2 2 3 3 2 2
5 5 5 5 5 5 4 4 4 4 4 4 3 3 4 5 5 6 6 4 4 3 3 3 3 5 5 5 5 4 5 3 2 1 1 1 1 1 1 2 2 3 3
4 4 4 4 4 4 4 4 4 4 4 3 3 2 2 3 4 5 6 6 5 4 4 3 4 5 5 5 4 4 4 3 1 1 1 1 1 2 2 2 2 3 3
4 5 4 4 4 4 5 5 4 4 4 3 3 3 2 2 3 4 5 6 6 4 3 4 4 4 4 3 3 3 3 2 1 1 2 2 2 2 2 1 1 1 1
4 4 4 4 4 3 3 4 4 4 4 4 4 3 3 2 2 2 2 3 4 3 2 2 2 2 2 2 1 2 2 2 2 2 2 2 1 1 1 1 1 1 1
4 4 4 4 4 4 4 4 5 5 6 6 5 4 4 4 5 5 4 3 3 3 2 1 1 1 1 1 1 1 1 2 2 2 2 2 1 1 1 1 0 0 1
3 4 4 4 4 4 3 2 3 3 4 6 5 5 4 5 4 5 5 4 4 4 3 1 2 2 2 2 2 2 2 2 2 2 2 2 2 2 1 1 0 1 1
4 4 3 4 4 4 4 4 3 1 1 3 4 5 4 3 4 4 4 4 4 5 2 2 3 3 3 2 2 2 2 2 2 2 3 2 2 2 1 1 1 1 1
4 4 4 4 4 4 5 5 4 4 3 2 2 3 4 4 4 4 4 4 2 2 2 3 3 3 3 3 3 3 2 2 2 2 2 2 2 2 2 2 2 2 2
4 3 3 3 3 4 4 4 4 4 4 2 1 1 2 2 2 3 5 2 3 3 3 3 3 3 3 3 3 3 3 2 2 2 2 2 2 2 3 3 2 3 3
3 4 4 3 3 3 3 4 4 4 4 4 3 2 2 2 2 2 2 2 3 3 3 3 3 3 3 3 3 3 3 3 3 3 2 2 2 3 3 3 3 3 3
3 3 5 4 4 4 4 4 4 4 4 4 4 4 6 4 4 4 3 3 3 3 3 3 3 3 2 2 2 3 3 3 3 3 3 3 3 3 3 3 3 3 3
3 3 3 4 4 4 4 4 4 4 4 4 3 3 7 4 3 3 4 3 3 3 3 3 3 3 3 3 3 3 3 3 3 3 3 3 3 3 3 3 3 3 3
3 4 3 3 3 4 4 3 3 4 4 4 4 4 4 4 4 4 4 3 3 3 3 3 3 3 2 3 3 3 3 3 3 3 3 3 3 3 3 3 4 4 4
3 3 3 3 3 3 3 3 3 4 4 4 4 4 4 4 4 5 4 3 3 3 3 3 4 4 5 3 2 3 3 3 3 3 4 4 4 3 3 3 4 5 4
3 3 3 3 3 3 3 3 3 4 4 4 4 4 4 4 4 4 4 4 4 3 4 4 3 4 5 5 3 3 2 3 3 2 3 4 4 4 4 4 4 4 4
3 3 3 3 3 3 3 3 3 4 4 4 4 4 4 4 4 4 4 4 4 3 4 3 4 4 4 4 4 4 3 3 3 3 3 3 3 3 4 4 5 4 4
Wind_Direction
181 181 182 180 179 174 178 188 186 179 170 172 177 175 175 177 173 165 171 161 166 192 198 183 215 202 197 218 205 195 200 197 235 271 269 288 285 298 307 295 279 276 282
179 178 186 181 178 183 190 194 187 184 181 179 176 175 185 186 182 178 185 180 182 194 208 198 224 208 208 222 210 217 218 212 218 259 282 290 281 294 298 298 307 296 281
172 175 182 187 188 194 197 194 188 183 180 177 175 181 188 190 188 193 190 190 196 204 206 206 221 207 227 224 219 227 233 229 217 234 271 282 289 312 317 313 310 308 294
171 177 186 195 199 200 196 192 188 184 184 185 187 190 191 192 195 197 194 195 205 216 216 215 220 216 225 225 225 228 221 218 215 230 262 283 287 302 302 301 304 306 303
171 182 194 196 197 192 190 189 186 188 193 190 186 193 195 195 206 203 199 200 207 221 230 229 227 222 224 224 228 221 211 211 213 227 250 268 277 283 275 275 283 299 285
171 185 190 181 180 186 188 183 182 185 183 179 184 188 194 209 211 204 198 202 205 214 229 239 236 231 240 246 247 233 216 212 214 219 233 242 253 247 255 263 272 291 289
177 184 184 176 182 188 186 179 186 188 181 183 189 192 202 215 210 206 198 191 204 217 223 232 243 238 226 247 263 257 240 237 224 215 227 237 241 233 230 250 248 252 264
178 181 181 180 185 183 181 187 190 182 180 186 192 200 204 218 208 202 196 196 206 220 223 222 225 243 240 237 251 266 266 258 248 234 234 243 245 234 220 233 244 258 270
186 191 191 185 182 180 185 190 188 179 182 188 189 195 202 219 211 203 192 194 207 226 231 225 217 230 248 219 215 256 277 283 270 269 257 255 254 241 211 199 215 243 270
198 198 193 183 180 186 188 182 177 178 190 191 199 201 203 212 212 204 192 195 207 225 232 231 226 237 244 218 210 224 251 268 287 308 303 298 281 261 211 208 212 225 249
193 183 180 179 183 178 173 171 171 175 177 186 197 209 209 212 211 208 197 194 203 213 223 236 241 240 236 231 223 227 241 250 255 260 285 299 312 303 259 234 223 222 230
171 172 175 176 181 169 165 171 173 171 171 181 188 210 221 217 213 214 204 203 203 208 221 231 234 228 224 226 225 240 242 231 225 231 262 280 289 292 289 279 256 244 242
167 172 175 171 175 166 167 171 169 169 177 190 197 213 223 219 222 222 215 211 212 219 232 233 231 221 215 219 225 226 217 208 206 220 249 261 269 280 291 295 295 277 271
175 178 177 173 171 164 167 172 177 183 189 193 201 213 223 226 223 221 222 216 219 226 240 238 222 217 211 212 216 230 222 213 208 227 244 259 280 289 287 287 282 287 296
179 179 179 178 173 178 184 185 189 199 195 194 200 200 203 224 227 206 198 209 209 204 180 166 186 197 205 221 234 245 232 215 220 239 242 253 260 259 269 275 258 241 251
176 183 187 184 182 183 186 192 200 200 206 202 198 192 210 221 210 199 202 206 195 165 151 187 208 214 226 237 241 244 232 227 226 228 234 236 238 242 253 252 213 212 246
188 191 192 192 190 189 188 188 202 233 200 191 189 190 200 204 195 196 195 188 173 158 174 211 219 224 228 230 233 234 238 237 225 225 229 231 231 230 229 230 223 236 257
193 197 194 196 195 192 194 197 194 192 199 229 212 196 198 197 193 182 161 139 153 177 208 217 220 224 227 230 233 235 237 233 225 227 227 223 220 220 220 223 224 231 241
203 204 199 192 192 193 192 190 195 195 192 189 207 217 198 175 153 154 154 174 195 210 220 227 228 228 232 234 235 230 225 225 223 218 216 221 224 221 226 230 232 233 238
211 212 199 191 187 189 190 191 195 197 195 192 197 196 156 146 164 177 191 212 210 215 219 226 230 234 235 233 229 222 219 220 217 216 216 219 223 224 229 234 235 239 241
211 209 199 191 195 196 195 194 195 199 202 205 200 189 177 186 198 199 202 212 215 214 215 221 226 227 229 229 224 221 219 221 219 221 220 219 220 225 232 237 240 241 247
202 203 200 203 203 202 202 198 194 200 206 207 205 185 181 191 201 206 209 212 215 217 213 212 220 225 223 220 216 214 218 224 225 224 223 220 217 223 230 237 243 245 244
204 206 207 206 206 200 198 198 199 204 208 205 201 193 193 204 208 210 212 211 205 210 209 207 216 225 226 225 219 212 216 225 226 220 222 226 222 221 227 236 245 248 247
205 206 204 203 200 200 203 204 207 211 210 207 206 206 206 206 208 210 209 204 203 207 207 208 213 219 222 220 217 218 226 232 228 219 217 225 227 226 230 237 242 244 246
202 204 203 201 205 208 210 213 215 215 215 213 210 211 211 207 204 206 206 200 199 206 213 211 208 213 215 209 204 209 211 213 219 222 213 217 227 231 235 241 246 252 251
202 203 206 206 206 206 206 211 216 214 211 212 211 209 207 206 206 204 201 199 200 207 213 210 201 199 200 201 203 203 199 201 209 218 221 221 229 238 240 242 247 251 254